Location: Unspecified
(0.0000°N, 0.0000°E)
Time: 07:13:42
(UTC+00:00)

Vanguard 2 - Pass Details

Date: 25 September 2019
Orbit: 554 x 2937 km, 32.9° (Epoch: 14 October)

Event Time Altitude Azimuth Distance (km) Brightness Sun altitude
Rises 17:34:45 0° 203° (SSW) 4,614 11.9 4.2°
Reaches altitude 10° 17:39:58 10° 179° (S) 4,152 11.3 2.9°
Maximum altitude 17:45:23 14° 150° (SSE) 4,299 11.1 1.6°
Drops below altitude 10° 17:51:48 10° 123° (ESE) 5,106 11.2 0.0°
Enters shadow 17:59:35 - 103° (ESE) 6,497 11.6 -2.0°
Sets 17:59:50 0° 102° (ESE) 6,544 - -2.0°
